Tracking 35274 objects as of 11-Sep-2026
HD Live streaming from Space Station
objects crossing your sky now

COSMOS 2554

Track COSMOS 2554 now!
10-day predictions


NORAD ID: 52202
Int'l Code: 2022-036A
Launch date: April 7, 2022
Source: Commonwealth of Independent States (former USSR) (CIS)
Launch site: PLESETSK MISSILE AND SPACE COMPLEX (PKMTR)
Your satellite tracking list
Your tracking list is empty




NASA's NSSDC Master Catalog

Two Line Element Set (TLE):
1 52202U 22036A   26254.34598556 -.00000047  00000-0  20330-4 0  9992
2 52202  67.1502  19.2853 0004897 273.2463  86.8061 13.96673536225981
Source of the keplerian elements: AFSPC